Weather History for Iron Mountain, MI

Change the Weather History Date:

Thursday, August 22, 2013

  Actual Average Record
Temperature  
Mean Temperature 68 °F -  
Max Temperature 80 °F 75 °F 91 °F (1947)
Min Temperature 52 °F 53 °F 34 °F (1950)
Cooling Degree Days 4    
Growing Degree Days 18 (Base 50)    
Moisture  
Dew Point 55 °F    
Average Humidity 76    
Maximum Humidity 100    
Minimum Humidity 30    
Precipitation  
Precipitation 0.00 in - - ()
Sea Level Pressure  
Sea Level Pressure 30.06 in    
Wind  
Wind Speed 2 mph (NNW)    
Max Wind Speed 12 mph    
Max Gust Speed 16 mph    
Visibility 7 miles    
Events Fog    
Averages and records for this station are not official NWS values.
T = Trace of Precipitation, MM = Missing Value Source: NWS Daily Summary

Daily Weather History Graph

Daily Weather History Graph

Search for Another Location

Airport:

Trip Planner

Search our weather history database for the weather conditions in past years. The results will help you decide how hot, cold, wet, or windy it might be!

Date:

Astronomy

Aug. 22, 2013 Rise Set
Actual Time 6:01 AM CDT 7:48 PM CDT
Civil Twilight 5:29 AM CDT 8:19 PM CDT
Nautical Twilight 4:50 AM CDT 8:58 PM CDT
Astronomical Twilight 4:08 AM CDT 9:40 PM CDT
Moon 8:21 PM CDT (8/22) 7:58 AM CDT (8/22)
Length of Visible Light 14h 50m
Length of Day
13h 46m
Waning Gibbous, 96% of the Moon is Illuminated
Aug 22
Waning Gibbous
Aug 28
Last Quarter
Sep 5
New
Sep 12
First Quarter
Sep 19
Full

Hourly Weather History & Observations

Time (CDT) Temp. Dew Point Humidity Pressure Visibility Wind Dir Wind Speed Gust Speed Precip Events Conditions
12:18 AM 62.6 °F 62.6 °F 100% 30.00 in 2.0 mi Calm Calm - N/A   Clear
12:32 AM 60.8 °F 60.8 °F 100% 30.00 in 0.8 mi Calm Calm - N/A   Clear
12:54 AM 60.1 °F 59.0 °F 96% 29.99 in 0.5 mi Calm Calm - N/A Fog Fog
1:01 AM 60.8 °F 59.0 °F 94% 30.00 in 0.2 mi Calm Calm - N/A Fog Fog
1:20 AM 60.8 °F 60.8 °F 100% 29.99 in 0.5 mi Calm Calm - N/A Fog Fog
1:39 AM 62.6 °F 60.8 °F 94% 29.99 in 1.8 mi Calm Calm - N/A   Clear
1:47 AM 60.8 °F 60.8 °F 100% 29.99 in 0.8 mi Calm Calm - N/A   Mist
1:54 AM 60.1 °F 59.0 °F 96% 29.98 in 0.8 mi Calm Calm - N/A   Mist
2:06 AM 60.8 °F 60.8 °F 100% 29.99 in 2.5 mi Calm Calm - N/A   Mostly Cloudy
2:09 AM 60.8 °F 59.0 °F 94% 30.00 in 3.0 mi Calm Calm - N/A   Scattered Clouds
2:22 AM 59.0 °F 57.2 °F 94% 30.00 in 1.5 mi Calm Calm - N/A   Partly Cloudy
2:25 AM 59.0 °F 57.2 °F 94% 30.00 in 0.8 mi Calm Calm - N/A   Mist
2:38 AM 60.8 °F 59.0 °F 94% 30.01 in 1.0 mi Calm Calm - N/A   Clear
2:54 AM 59.0 °F 57.9 °F 96% 30.00 in 4.0 mi North 3.5 mph - N/A   Clear
3:54 AM 59.0 °F 57.0 °F 93% 30.01 in 10.0 mi NNW 5.8 mph - N/A   Clear
4:54 AM 57.9 °F 57.0 °F 97% 30.01 in 10.0 mi Calm Calm - N/A   Partly Cloudy
5:54 AM 57.0 °F 55.9 °F 96% 30.04 in 10.0 mi Calm Calm - N/A   Partly Cloudy
6:54 AM 59.0 °F 57.0 °F 93% 30.08 in 10.0 mi NW 4.6 mph - N/A   Mostly Cloudy
7:54 AM 61.0 °F 57.0 °F 87% 30.09 in 10.0 mi Calm Calm - N/A   Partly Cloudy
8:54 AM 63.0 °F 57.9 °F 84% 30.09 in 10.0 mi NNW 5.8 mph - N/A   Partly Cloudy
9:54 AM 71.1 °F 55.9 °F 59% 30.09 in 10.0 mi NNW 4.6 mph - N/A   Clear
10:54 AM 73.0 °F 55.0 °F 53% 30.12 in 10.0 mi NW 9.2 mph - N/A   Clear
11:54 AM 75.0 °F 53.1 °F 46% 30.12 in 10.0 mi North 3.5 mph - N/A   Clear
12:54 PM 77.0 °F 51.1 °F 40% 30.09 in 10.0 mi NNW 6.9 mph - N/A   Clear
1:54 PM 79.0 °F 48.0 °F 34% 30.09 in 10.0 mi NW 11.5 mph 16.1 mph N/A   Clear
2:54 PM 79.0 °F 48.0 °F 34% 30.09 in 10.0 mi WNW 5.8 mph - N/A   Clear
3:54 PM 78.1 °F 46.9 °F 33% 30.09 in 10.0 mi North 8.1 mph - N/A   Clear
4:54 PM 80.1 °F 46.0 °F 30% 30.09 in 10.0 mi North 5.8 mph - N/A   Clear
5:54 PM 79.0 °F 48.0 °F 34% 30.09 in 10.0 mi NNE 5.8 mph - N/A   Clear
6:54 PM 73.9 °F 51.1 °F 45% 30.09 in 10.0 mi ENE 8.1 mph - N/A   Partly Cloudy
7:54 PM 70.0 °F 51.1 °F 51% 30.12 in 10.0 mi NE 4.6 mph - N/A   Mostly Cloudy
8:54 PM 66.0 °F 50.0 °F 56% 30.14 in 10.0 mi Calm Calm - N/A   Clear
9:54 PM 61.0 °F 50.0 °F 67% 30.16 in 10.0 mi Calm Calm - N/A   Clear
10:54 PM 57.0 °F 50.0 °F 77% 30.17 in 10.0 mi Calm Calm - N/A   Clear
11:54 PM 52.0 °F 48.0 °F 86% 30.18 in 10.0 mi Calm Calm - N/A   Clear